SCP
0 -0 -0 -0 0 0 0 0 0 0 0 0 0 0 0 0 0 0 0 -0 -0 -0 -0 -0 -0 0 0 -0 -0 -0 0 0 0 0 0 0 -0 -0 -0 0 0 0 0 0 0 0 0 0 0
0 -0 -0 -0 0 0 0 0 0 0 0 0 0 0 0 0 0 0 0 -0 -0 -0 0 0 -0 -0 -0 -0 0 0 0 0 0 -0 0 0 0 0 0 -0 0 0 0 0 0 0 0 0 0
-0 -0 0 0 0 0 0 0 0 0 0 0 0 0 0 0 0 0 0 -0 -0 -0 -0 -0 -0 -0 -0 -0 -0 0 0 0 0 0 0 0 0 0 0 0 0 0 0 0 0 0 0 0 0
0 0 0 0 0 0 0 0 0 0 0 0 -0 0 0 0 0 0 0 0 -0 -0 -0 -0 -0 -0 -0 -0 0 0 0 0 0 0 0 0 0 0 0 0 0 0 0 -0 0 0 0 0 0
0 0 0 0 0 0 0 0 0 0 0 0 0 0 0 0 0 0 0 0 -0 -0 0 -0 -0 -0 -0 -0 -0 0 0 0 0 0 0 0 0 0 0 0 0 0 0 0 -0 0 0 0 0
0 0 0 0 0 0 0 0 0 0 0 0 0 0 0 0 0 0 0 0 0 0 0 0 -0 -0 -0 -0 -0 -0 -0 0 0 0 0 0 0 0 0 0 0 0 0 0 0 0 0 0 0
0 0 0 0 0 0 0 0 0 0 0 0 0 0 0 0 0 0 0 0 0 0 0 0 0 0 0 0 -0 -0 -0 0 0 0 0 0 0 0 0 0 0 0 0 0 0 0 0 0 0
0 0 0 0 0 0 0 0 0 0 0 0 0 0 0 0 0 0 0 0 0 0 0 0 0 0 0 0 0 0 0 0 0 0 0 0 0 0 0 0 0 0 0 0 0 0 0 0 0
0 0 0 0 0 0 0 0 0 0 0 0 0 0 0 0 0 0 0 0 0 0 0 0 0 0 0 0 0 0 0 0 0 0 0 0 0 0 0 0 0 0 0 0 0 0 0 0 0
0 0 0 0 0 0 0 0 0 0 0 0 0 0 0 0 0 0 0 0 0 0 0 0 0 0 0 0 0 0 0 0 0 0 0 0 0 0 0 0 0 0 0 0 0 0 0 0 0
0 0 0 0 0 0 0 0 0 0 0 0 0 0 0 0 0 0 0 0 0 0 0 0 0 0 -0 -0 -0 -0 0 0 0 0 0 0 0 0 0 0 0 0 0 0 0 0 1 0 0
0 0 0 0 0 0 0 0 0 0 0 0 0 0 0 0 0 0 0 0 0 0 0 0 0 -0 -0 -0 -0 -0 0 0 0 0 0 0 0 0 0 0 0 0 0 0 0 0 0 0 0
0 0 0 0 0 0 0 0 0 0 0 0 0 0 0 0 0 0 0 0 0 0 0 0 0 -0 -0 -0 -0 0 0 0 0 0 0 0 0 0 0 0 0 0 0 0 0 0 0 0 1
0 0 0 0 0 0 0 0 0 0 0 0 0 0 0 0 0 0 0 0 0 0 0 -0 -0 -0 -0 -0 -0 -0 -0 0 0 0 0 0 0 0 0 0 0 0 -0 0 0 0 0 0 1
0 0 0 0 0 0 0 0 0 0 0 0 0 0 0 0 0 0 0 0 0 0 0 -0 -0 -0 -0 -0 -0 -0 -0 -0 0 0 0 0 0 0 0 0 -0 0 -0 -0 0 0 0 0 0
0 0 0 0 0 0 0 0 0 0 0 0 0 0 0 0 0 0 0 0 0 0 0 0 -0 -0 -0 -0 -0 -0 0 0 0 0 0 0 0 0 0 0 0 0 0 -0 -0 0 0 0 0
0 0 0 0 0 0 0 0 0 0 0 0 0 0 0 0 0 0 0 0 0 0 0 0 -0 -0 -0 -0 0 0 0 0 0 0 0 0 0 0 0 0 0 0 0 0 -0 -0 0 0 0
0 0 0 0 0 0 0 0 0 0 0 0 0 0 0 0 0 0 0 0 0 0 0 0 -0 -0 0 0 0 0 0 0 0 0 0 0 0 0 0 0 0 0 0 0 0 -0 -0 0 0
0 0 0 0 0 0 0 0 0 0 0 0 0 0 0 0 0 0 0 0 0 0 0 0 0 0 0 0 0 0 0 0 0 0 0 0 0 0 0 0 0 0 0 0 0 -0 -0 -0 0
0 0 0 0 0 0 0 0 0 0 0 0 0 0 0 0 0 0 0 0 0 0 0 0 0 0 0 0 0 0 0 0 0 0 0 0 0 0 0 0 0 0 0 0 0 -0 -0 -0 -0
0 0 0 0 0 0 0 0 0 0 0 0 0 0 0 0 0 0 0 0 0 0 0 0 0 0 0 0 0 0 0 0 0 0 0 0 0 0 0 0 0 0 0 0 0 -0 -0 -0 -0
0 0 0 0 0 0 0 0 0 0 0 0 0 0 0 0 0 0 0 0 0 0 0 0 0 0 0 0 0 0 0 0 0 0 0 0 0 0 0 0 0 0 0 0 0 0 0 -0 -0
0 0 0 0 0 0 0 0 0 0 0 0 0 0 0 0 0 0 0 0 0 0 0 0 0 0 0 0 0 0 0 0 0 0 0 0 0 0 0 0 0 0 0 0 0 0 -0 -0 -0
0 0 0 0 0 0 0 0 0 0 0 0 0 0 0 0 0 0 0 0 0 0 0 0 0 0 0 0 0 0 0 0 0 0 0 0 0 0 0 0 0 0 0 0 0 0 0 -0 -0
0 0 0 0 0 0 0 0 0 0 0 0 0 0 0 0 0 0 0 0 0 0 0 0 0 0 0 0 0 0 0 0 0 0 0 0 0 0 0 0 0 0 0 0 0 0 0 -0 -0
0 0 0 0 0 0 0 0 0 0 0 0 0 0 0 0 0 0 0 0 0 0 0 0 0 0 0 0 0 0 0 0 0 0 0 0 0 0 0 0 0 0 0 0 0 0 0 -0 -0
0 0 0 0 0 0 0 0 0 0 0 0 0 0 0 0 0 0 0 0 0 0 0 0 0 0 0 0 0 0 0 0 0 0 0 0 0 0 0 0 0 0 0 0 0 0 0 -0 -0
0 0 0 0 0 0 0 0 0 0 0 0 0 0 0 0 0 0 0 0 0 0 0 0 0 0 0 0 0 0 0 0 0 0 0 0 0 0 0 0 0 0 0 0 0 0 0 -0 -0
0 0 0 0 0 0 0 0 0 0 0 0 0 0 0 0 0 0 0 0 0 0 0 0 0 0 0 0 0 0 0 0 0 0 0 0 0 0 0 0 0 0 0 0 0 0 0 0 -0
0 0 0 0 0 0 0 0 0 0 0 0 0 0 0 0 0 0 0 0 0 0 0 0 0 0 0 0 0 0 0 0 0 0 0 0 0 0 0 0 0 0 0 0 0 0 0 0 -0
Wind_Speed_500mb
6 4 3 2 7 10 3 4 4 5 4 5 8 30 24 39 8 12 29 24 25 23 26 28 25 20 14 8 10 15 17 21 22 22 21 24 25 26 30 31 28 27 30 35 39 36 34 34 32
6 3 2 4 9 7 7 5 6 6 13 17 21 27 33 10 31 22 22 22 16 14 12 16 20 17 7 5 8 14 21 23 25 27 30 30 29 31 32 32 36 32 31 32 35 40 36 36 37
3 3 2 8 7 8 9 6 6 7 11 12 16 35 16 22 27 16 26 14 18 13 17 19 17 11 9 7 9 15 20 23 27 33 35 36 38 38 37 37 38 38 36 36 34 36 38 36 39
1 4 7 8 6 1 14 9 11 14 7 23 49 21 19 35 12 21 18 13 12 13 13 15 12 14 12 5 7 15 21 24 27 31 35 39 42 44 44 44 43 43 41 40 39 36 36 35 38
5 4 8 7 4 2 5 5 17 7 6 20 21 14 18 32 23 15 16 15 20 19 19 20 21 16 14 17 17 16 19 29 31 33 36 41 43 46 48 47 49 48 45 43 42 40 40 39 38
3 3 9 3 6 4 5 8 23 14 15 19 31 22 14 20 11 15 14 20 25 28 31 32 35 36 31 24 23 23 26 29 29 37 40 41 43 48 50 50 51 50 51 49 48 46 44 44 43
9 7 6 4 12 4 5 4 11 13 8 16 20 10 18 16 13 9 12 13 19 25 29 33 34 35 37 40 41 38 31 30 36 39 41 44 44 45 49 52 53 54 53 53 53 53 50 48 49
5 8 4 1 8 5 3 7 22 17 6 14 13 14 11 19 4 6 10 18 20 25 28 33 36 37 38 41 41 41 42 40 37 37 43 42 46 48 48 51 58 59 59 58 57 57 57 54 52
3 8 2 3 5 5 4 6 11 13 23 20 16 22 32 16 4 4 13 17 21 25 30 35 38 41 44 46 48 46 43 42 42 40 38 47 51 47 50 52 53 68 66 64 62 61 60 59 57
9 7 3 2 5 6 2 8 21 14 25 23 41 36 25 12 2 10 15 19 21 28 34 42 47 51 52 55 55 53 48 44 41 42 43 40 43 56 57 55 54 60 61 68 66 67 66 65 66
2 6 5 3 9 8 9 5 8 45 4 25 38 34 20 8 4 10 15 20 25 30 38 46 51 54 59 60 59 58 56 54 49 44 45 51 52 51 50 53 60 61 60 68 75 76 76 75 74
6 3 4 12 5 10 11 13 10 3 11 35 42 31 21 10 9 11 13 16 20 30 42 48 52 55 56 58 59 57 57 56 58 60 57 54 57 60 57 55 52 55 70 70 74 84 86 81 79
1 8 5 2 6 12 14 7 16 25 37 39 34 26 17 11 9 9 12 13 22 35 43 49 53 53 54 56 58 61 58 56 56 59 62 66 65 64 69 66 65 61 53 62 77 80 91 90 83
5 10 23 19 6 14 17 9 4 30 43 39 32 24 18 13 9 6 5 12 23 35 40 46 52 53 54 58 61 62 62 63 59 55 61 66 72 76 71 72 73 73 70 56 58 85 84 97 89
9 10 12 10 12 10 25 2 17 37 50 44 37 32 25 14 8 4 5 12 20 34 36 44 52 54 57 61 63 65 66 67 68 67 74 79 81 84 77 76 80 75 76 84 70 52 89 92 102
4 5 5 6 8 5 13 18 11 52 60 49 41 37 30 20 12 5 1 7 17 33 39 45 52 58 61 64 66 68 68 69 73 78 88 91 93 90 82 79 84 78 77 84 87 72 59 94 99
10 7 9 13 20 5 12 13 12 58 58 53 50 45 34 26 17 9 4 9 19 35 40 46 53 59 64 65 66 68 71 76 81 87 92 94 94 89 81 83 84 84 88 80 87 87 70 68 94
9 9 11 13 6 9 14 27 16 56 57 57 55 46 37 28 20 16 12 12 19 36 43 48 55 61 64 66 70 75 80 85 91 97 99 99 101 88 80 85 89 93 84 86 85 86 88 68 49
5 9 15 11 12 11 20 33 26 50 45 45 57 53 43 33 23 18 14 15 23 37 45 51 59 59 60 68 75 81 88 93 98 101 105 105 100 91 76 71 73 77 78 84 87 86 82 98 83
11 11 16 18 10 5 18 21 18 37 57 74 66 61 49 38 30 23 16 16 28 38 45 50 53 55 60 65 72 79 89 97 104 110 111 111 109 105 95 86 85 82 85 88 84 78 88 89 95
9 11 11 16 8 11 17 15 35 7 40 47 55 63 53 43 32 23 15 17 28 38 45 47 53 56 60 66 75 82 89 99 109 113 118 118 112 104 95 81 82 79 77 81 80 76 82 70 103
12 5 10 9 9 7 8 18 7 12 28 24 49 63 54 43 31 22 14 17 26 36 42 43 52 54 60 67 75 83 93 105 107 115 120 123 116 101 88 77 59 69 72 82 80 73 82 75 81
15 0 8 6 9 7 13 10 10 5 16 27 43 65 54 44 34 25 14 16 24 33 38 45 55 55 62 68 73 83 90 97 107 115 120 123 118 98 88 76 70 72 66 63 79 77 85 80 69
3 6 8 5 5 3 13 17 10 12 19 16 40 57 58 47 36 24 15 15 23 31 36 48 59 61 65 72 76 83 92 99 109 114 122 127 118 99 94 86 75 74 70 57 67 81 80 87 81
7 9 8 10 4 15 9 6 33 16 15 21 44 60 62 48 38 26 15 14 24 31 38 53 62 67 73 75 77 85 93 100 103 109 120 124 115 102 98 78 70 71 74 70 56 73 75 75 75
11 13 9 12 8 30 3 15 12 9 19 43 49 66 57 47 35 22 12 18 26 32 41 56 66 75 76 77 80 85 92 98 103 109 116 116 106 103 87 79 83 78 68 70 68 59 84 70 74
9 10 3 3 3 6 10 14 12 8 5 18 41 59 55 44 33 22 13 19 25 32 45 62 70 73 76 79 84 90 95 98 103 108 114 110 103 100 82 87 70 64 64 72 70 54 84 77 71
7 7 5 3 6 13 13 18 23 15 21 16 22 45 53 43 33 23 16 20 27 40 53 58 64 72 77 82 87 94 100 100 102 109 111 103 97 94 93 87 81 79 78 72 71 67 57 83 73
2 7 7 4 9 9 8 32 13 31 36 38 34 57 61 47 35 23 18 21 31 42 50 59 66 73 80 85 91 98 103 103 102 106 107 100 95 91 92 89 80 73 81 73 76 68 51 75 69
5 20 24 9 13 13 5 33 7 19 23 48 50 59 57 45 34 23 15 22 34 44 55 62 70 75 80 87 95 100 105 107 104 107 103 99 96 87 87 85 79 82 79 70 75 74 52 65 70
Wind_Direction_500mb
99 179 177 48 56 65 360 23 45 115 68 70 59 91 89 47 40 125 38 37 24 22 20 3 1 360 1 343 317 298 288 289 288 279 280 277 278 286 293 289 281 286 283 276 267 260 256 257 251
119 161 160 91 85 71 285 300 133 165 143 113 88 83 51 58 52 46 29 29 356 358 6 2 3 3 351 295 290 297 301 297 296 290 287 280 274 282 285 286 294 294 292 279 270 266 258 253 249
127 120 128 97 109 152 175 225 170 138 112 127 110 63 36 333 28 60 49 10 313 344 353 345 338 347 354 282 266 275 276 283 289 290 290 282 278 281 279 281 284 288 290 287 271 263 264 255 249
100 124 71 81 121 113 166 199 149 130 106 83 103 71 77 56 64 67 34 344 343 21 356 349 335 334 319 299 268 251 273 276 280 282 283 284 281 278 279 279 280 282 285 282 275 263 255 258 251
45 90 58 88 98 78 279 138 84 79 98 85 107 114 94 73 72 51 27 19 29 28 13 4 2 352 344 337 327 303 272 265 273 278 279 280 280 280 279 278 278 279 278 276 271 265 261 255 258
77 71 57 129 117 208 277 114 94 80 98 90 102 101 85 87 56 35 16 30 46 52 52 49 43 35 27 7 346 328 311 300 283 276 278 277 279 280 280 278 276 277 278 274 269 267 260 258 255
101 77 168 164 156 181 185 92 84 82 66 37 140 84 111 91 61 18 22 31 42 43 42 41 39 36 31 25 21 15 351 320 300 291 282 280 276 279 280 279 279 277 273 273 271 265 263 261 257
49 87 51 76 171 181 354 82 93 84 89 83 126 153 138 99 63 339 4 32 40 43 37 33 26 19 13 7 3 359 354 353 347 314 294 289 281 278 277 282 277 272 273 270 269 267 263 260 258
69 60 15 328 139 157 133 107 65 114 115 77 113 119 123 132 238 328 21 37 44 40 27 19 14 8 3 358 352 345 339 334 332 330 327 296 289 286 283 280 286 276 268 264 267 267 264 259 258
81 102 217 348 130 150 80 133 149 104 100 99 107 118 139 180 329 14 32 47 37 25 16 10 7 4 359 353 349 347 342 335 327 320 319 313 304 289 286 283 278 274 274 266 263 265 264 261 258
115 165 192 101 122 159 156 118 151 136 186 179 156 146 170 179 92 57 62 51 34 21 15 11 6 2 358 355 352 349 347 343 338 329 321 315 310 305 302 293 286 282 274 266 264 262 261 261 259
346 290 210 170 173 154 157 163 84 227 154 161 164 174 176 172 107 78 66 45 22 14 9 6 5 1 356 350 347 348 348 347 344 342 335 326 318 310 302 300 292 292 287 279 268 261 261 261 261
180 316 322 216 194 127 160 189 152 136 147 158 168 176 176 154 112 84 57 32 18 12 6 2 2 359 353 348 347 348 349 345 341 338 337 333 324 315 310 302 292 283 293 299 279 271 259 257 258
315 290 291 288 261 175 136 173 144 177 164 165 179 189 197 180 144 123 63 28 17 7 3 356 358 355 350 347 348 348 346 343 338 333 332 329 325 320 312 304 300 293 282 285 294 278 269 253 256
306 328 323 247 199 202 126 328 230 192 178 179 184 187 185 181 141 118 54 14 4 2 1 354 353 349 349 350 349 346 346 343 341 336 333 330 326 322 311 306 305 296 288 281 279 292 269 262 254
12 56 349 279 177 199 159 257 234 187 182 187 184 180 175 171 178 167 278 346 357 357 359 352 351 348 348 347 345 343 341 339 336 334 333 330 326 321 314 305 303 304 297 286 282 277 284 261 258
5 241 229 310 208 136 186 265 225 187 193 191 192 185 181 173 171 190 243 326 339 352 354 352 352 350 348 345 340 337 336 337 336 334 332 328 324 319 310 306 303 301 302 292 294 278 278 268 252
247 280 271 239 261 197 246 261 193 196 200 200 199 193 191 181 183 202 231 291 323 346 351 349 352 348 346 342 341 340 338 336 335 333 332 329 325 320 304 297 297 295 296 297 293 297 272 277 266
206 234 230 252 252 223 233 245 208 202 208 212 205 197 193 191 192 204 239 285 319 338 346 348 349 348 345 345 343 340 336 334 332 331 332 330 325 317 301 291 291 291 291 292 294 296 297 274 261
230 260 264 285 241 207 270 248 233 191 212 212 201 197 193 190 191 202 236 290 325 337 342 346 348 344 347 343 339 336 333 331 332 332 331 331 327 320 314 285 280 288 288 289 286 292 296 284 267
231 212 252 241 341 292 286 249 242 224 223 214 206 200 198 195 196 203 234 296 325 333 340 343 344 343 341 339 335 333 330 330 330 331 330 331 328 321 314 303 280 278 282 284 279 285 290 289 267
276 230 258 283 360 261 351 293 241 196 226 203 193 201 197 193 196 203 235 293 319 328 334 335 340 339 339 336 334 333 332 328 329 329 329 330 328 321 317 310 293 278 279 279 272 280 284 294 275
237 71 264 263 258 349 229 254 243 145 247 211 197 201 193 195 199 202 238 297 316 325 331 333 338 337 336 334 333 330 327 325 326 328 329 330 326 321 318 310 285 276 273 279 275 273 278 284 267
30 332 299 46 101 254 233 197 222 193 218 193 204 197 193 190 191 205 240 295 321 325 328 331 336 336 334 334 332 328 327 326 325 328 329 328 323 321 313 309 297 278 266 273 274 270 270 277 273
80 55 313 334 344 238 176 236 258 236 226 195 195 188 189 188 192 206 242 303 327 327 330 333 334 334 336 332 330 328 327 325 325 328 327 324 321 316 315 310 303 289 264 267 277 264 267 275 278
176 176 169 261 248 293 351 245 252 291 301 241 191 180 182 187 195 216 261 314 323 327 332 331 335 335 332 329 327 325 324 325 325 326 323 321 316 315 317 308 299 291 275 267 270 273 261 264 281
177 190 151 184 123 7 239 277 281 87 52 117 153 173 185 191 202 221 267 310 318 327 330 334 332 330 329 328 326 326 325 326 325 324 322 320 315 314 302 305 298 289 277 258 268 281 261 266 275
166 153 68 10 284 273 262 270 246 198 206 187 184 191 194 199 209 224 265 299 317 329 330 330 329 329 329 328 328 327 326 326 326 323 322 319 315 308 311 305 286 279 276 262 261 267 268 266 277
154 216 200 193 164 224 293 283 210 193 203 192 201 197 199 203 213 228 265 304 328 325 327 330 331 331 330 330 329 328 326 327 325 324 324 320 314 308 309 305 297 286 274 265 256 260 271 267 272
235 206 186 184 224 236 193 260 170 207 197 196 204 198 201 208 209 229 270 316 317 322 329 333 332 332 331 330 328 328 327 327 326 327 325 319 314 309 305 301 294 287 280 272 257 257 262 262 263
Wind_Speed_850mb
6 4 3 2 7 10 3 4 4 5 4 5 8 30 24 39 8 12 29 24 25 23 26 28 25 20 14 8 10 15 17 21 22 22 21 24 25 26 30 31 28 27 30 35 39 36 34 34 32
6 3 2 4 9 7 7 5 6 6 13 17 21 27 33 10 31 22 22 22 16 14 12 16 20 17 7 5 8 14 21 23 25 27 30 30 29 31 32 32 36 32 31 32 35 40 36 36 37
3 3 2 8 7 8 9 6 6 7 11 12 16 35 16 22 27 16 26 14 18 13 17 19 17 11 9 7 9 15 20 23 27 33 35 36 38 38 37 37 38 38 36 36 34 36 38 36 39
1 4 7 8 6 1 14 9 11 14 7 23 49 21 19 35 12 21 18 13 12 13 13 15 12 14 12 5 7 15 21 24 27 31 35 39 42 44 44 44 43 43 41 40 39 36 36 35 38
5 4 8 7 4 2 5 5 17 7 6 20 21 14 18 32 23 15 16 15 20 19 19 20 21 16 14 17 17 16 19 29 31 33 36 41 43 46 48 47 49 48 45 43 42 40 40 39 38
3 3 9 3 6 4 5 8 23 14 15 19 31 22 14 20 11 15 14 20 25 28 31 32 35 36 31 24 23 23 26 29 29 37 40 41 43 48 50 50 51 50 51 49 48 46 44 44 43
9 7 6 4 12 4 5 4 11 13 8 16 20 10 18 16 13 9 12 13 19 25 29 33 34 35 37 40 41 38 31 30 36 39 41 44 44 45 49 52 53 54 53 53 53 53 50 48 49
5 8 4 1 8 5 3 7 22 17 6 14 13 14 11 19 4 6 10 18 20 25 28 33 36 37 38 41 41 41 42 40 37 37 43 42 46 48 48 51 58 59 59 58 57 57 57 54 52
3 8 2 3 5 5 4 6 11 13 23 20 16 22 32 16 4 4 13 17 21 25 30 35 38 41 44 46 48 46 43 42 42 40 38 47 51 47 50 52 53 68 66 64 62 61 60 59 57
9 7 3 2 5 6 2 8 21 14 25 23 41 36 25 12 2 10 15 19 21 28 34 42 47 51 52 55 55 53 48 44 41 42 43 40 43 56 57 55 54 60 61 68 66 67 66 65 66
2 6 5 3 9 8 9 5 8 45 4 25 38 34 20 8 4 10 15 20 25 30 38 46 51 54 59 60 59 58 56 54 49 44 45 51 52 51 50 53 60 61 60 68 75 76 76 75 74
6 3 4 12 5 10 11 13 10 3 11 35 42 31 21 10 9 11 13 16 20 30 42 48 52 55 56 58 59 57 57 56 58 60 57 54 57 60 57 55 52 55 70 70 74 84 86 81 79
1 8 5 2 6 12 14 7 16 25 37 39 34 26 17 11 9 9 12 13 22 35 43 49 53 53 54 56 58 61 58 56 56 59 62 66 65 64 69 66 65 61 53 62 77 80 91 90 83
5 10 23 19 6 14 17 9 4 30 43 39 32 24 18 13 9 6 5 12 23 35 40 46 52 53 54 58 61 62 62 63 59 55 61 66 72 76 71 72 73 73 70 56 58 85 84 97 89
9 10 12 10 12 10 25 2 17 37 50 44 37 32 25 14 8 4 5 12 20 34 36 44 52 54 57 61 63 65 66 67 68 67 74 79 81 84 77 76 80 75 76 84 70 52 89 92 102
4 5 5 6 8 5 13 18 11 52 60 49 41 37 30 20 12 5 1 7 17 33 39 45 52 58 61 64 66 68 68 69 73 78 88 91 93 90 82 79 84 78 77 84 87 72 59 94 99
10 7 9 13 20 5 12 13 12 58 58 53 50 45 34 26 17 9 4 9 19 35 40 46 53 59 64 65 66 68 71 76 81 87 92 94 94 89 81 83 84 84 88 80 87 87 70 68 94
9 9 11 13 6 9 14 27 16 56 57 57 55 46 37 28 20 16 12 12 19 36 43 48 55 61 64 66 70 75 80 85 91 97 99 99 101 88 80 85 89 93 84 86 85 86 88 68 49
5 9 15 11 12 11 20 33 26 50 45 45 57 53 43 33 23 18 14 15 23 37 45 51 59 59 60 68 75 81 88 93 98 101 105 105 100 91 76 71 73 77 78 84 87 86 82 98 83
11 11 16 18 10 5 18 21 18 37 57 74 66 61 49 38 30 23 16 16 28 38 45 50 53 55 60 65 72 79 89 97 104 110 111 111 109 105 95 86 85 82 85 88 84 78 88 89 95
9 11 11 16 8 11 17 15 35 7 40 47 55 63 53 43 32 23 15 17 28 38 45 47 53 56 60 66 75 82 89 99 109 113 118 118 112 104 95 81 82 79 77 81 80 76 82 70 103
12 5 10 9 9 7 8 18 7 12 28 24 49 63 54 43 31 22 14 17 26 36 42 43 52 54 60 67 75 83 93 105 107 115 120 123 116 101 88 77 59 69 72 82 80 73 82 75 81
15 0 8 6 9 7 13 10 10 5 16 27 43 65 54 44 34 25 14 16 24 33 38 45 55 55 62 68 73 83 90 97 107 115 120 123 118 98 88 76 70 72 66 63 79 77 85 80 69
3 6 8 5 5 3 13 17 10 12 19 16 40 57 58 47 36 24 15 15 23 31 36 48 59 61 65 72 76 83 92 99 109 114 122 127 118 99 94 86 75 74 70 57 67 81 80 87 81
7 9 8 10 4 15 9 6 33 16 15 21 44 60 62 48 38 26 15 14 24 31 38 53 62 67 73 75 77 85 93 100 103 109 120 124 115 102 98 78 70 71 74 70 56 73 75 75 75
11 13 9 12 8 30 3 15 12 9 19 43 49 66 57 47 35 22 12 18 26 32 41 56 66 75 76 77 80 85 92 98 103 109 116 116 106 103 87 79 83 78 68 70 68 59 84 70 74
9 10 3 3 3 6 10 14 12 8 5 18 41 59 55 44 33 22 13 19 25 32 45 62 70 73 76 79 84 90 95 98 103 108 114 110 103 100 82 87 70 64 64 72 70 54 84 77 71
7 7 5 3 6 13 13 18 23 15 21 16 22 45 53 43 33 23 16 20 27 40 53 58 64 72 77 82 87 94 100 100 102 109 111 103 97 94 93 87 81 79 78 72 71 67 57 83 73
2 7 7 4 9 9 8 32 13 31 36 38 34 57 61 47 35 23 18 21 31 42 50 59 66 73 80 85 91 98 103 103 102 106 107 100 95 91 92 89 80 73 81 73 76 68 51 75 69
5 20 24 9 13 13 5 33 7 19 23 48 50 59 57 45 34 23 15 22 34 44 55 62 70 75 80 87 95 100 105 107 104 107 103 99 96 87 87 85 79 82 79 70 75 74 52 65 70
Wind_Direction_850mb
99 179 177 48 56 65 360 23 45 115 68 70 59 91 89 47 40 125 38 37 24 22 20 3 1 360 1 343 317 298 288 289 288 279 280 277 278 286 293 289 281 286 283 276 267 260 256 257 251
119 161 160 91 85 71 285 300 133 165 143 113 88 83 51 58 52 46 29 29 356 358 6 2 3 3 351 295 290 297 301 297 296 290 287 280 274 282 285 286 294 294 292 279 270 266 258 253 249
127 120 128 97 109 152 175 225 170 138 112 127 110 63 36 333 28 60 49 10 313 344 353 345 338 347 354 282 266 275 276 283 289 290 290 282 278 281 279 281 284 288 290 287 271 263 264 255 249
100 124 71 81 121 113 166 199 149 130 106 83 103 71 77 56 64 67 34 344 343 21 356 349 335 334 319 299 268 251 273 276 280 282 283 284 281 278 279 279 280 282 285 282 275 263 255 258 251
45 90 58 88 98 78 279 138 84 79 98 85 107 114 94 73 72 51 27 19 29 28 13 4 2 352 344 337 327 303 272 265 273 278 279 280 280 280 279 278 278 279 278 276 271 265 261 255 258
77 71 57 129 117 208 277 114 94 80 98 90 102 101 85 87 56 35 16 30 46 52 52 49 43 35 27 7 346 328 311 300 283 276 278 277 279 280 280 278 276 277 278 274 269 267 260 258 255
101 77 168 164 156 181 185 92 84 82 66 37 140 84 111 91 61 18 22 31 42 43 42 41 39 36 31 25 21 15 351 320 300 291 282 280 276 279 280 279 279 277 273 273 271 265 263 261 257
49 87 51 76 171 181 354 82 93 84 89 83 126 153 138 99 63 339 4 32 40 43 37 33 26 19 13 7 3 359 354 353 347 314 294 289 281 278 277 282 277 272 273 270 269 267 263 260 258
69 60 15 328 139 157 133 107 65 114 115 77 113 119 123 132 238 328 21 37 44 40 27 19 14 8 3 358 352 345 339 334 332 330 327 296 289 286 283 280 286 276 268 264 267 267 264 259 258
81 102 217 348 130 150 80 133 149 104 100 99 107 118 139 180 329 14 32 47 37 25 16 10 7 4 359 353 349 347 342 335 327 320 319 313 304 289 286 283 278 274 274 266 263 265 264 261 258
115 165 192 101 122 159 156 118 151 136 186 179 156 146 170 179 92 57 62 51 34 21 15 11 6 2 358 355 352 349 347 343 338 329 321 315 310 305 302 293 286 282 274 266 264 262 261 261 259
346 290 210 170 173 154 157 163 84 227 154 161 164 174 176 172 107 78 66 45 22 14 9 6 5 1 356 350 347 348 348 347 344 342 335 326 318 310 302 300 292 292 287 279 268 261 261 261 261
180 316 322 216 194 127 160 189 152 136 147 158 168 176 176 154 112 84 57 32 18 12 6 2 2 359 353 348 347 348 349 345 341 338 337 333 324 315 310 302 292 283 293 299 279 271 259 257 258
315 290 291 288 261 175 136 173 144 177 164 165 179 189 197 180 144 123 63 28 17 7 3 356 358 355 350 347 348 348 346 343 338 333 332 329 325 320 312 304 300 293 282 285 294 278 269 253 256
306 328 323 247 199 202 126 328 230 192 178 179 184 187 185 181 141 118 54 14 4 2 1 354 353 349 349 350 349 346 346 343 341 336 333 330 326 322 311 306 305 296 288 281 279 292 269 262 254
12 56 349 279 177 199 159 257 234 187 182 187 184 180 175 171 178 167 278 346 357 357 359 352 351 348 348 347 345 343 341 339 336 334 333 330 326 321 314 305 303 304 297 286 282 277 284 261 258
5 241 229 310 208 136 186 265 225 187 193 191 192 185 181 173 171 190 243 326 339 352 354 352 352 350 348 345 340 337 336 337 336 334 332 328 324 319 310 306 303 301 302 292 294 278 278 268 252
247 280 271 239 261 197 246 261 193 196 200 200 199 193 191 181 183 202 231 291 323 346 351 349 352 348 346 342 341 340 338 336 335 333 332 329 325 320 304 297 297 295 296 297 293 297 272 277 266
206 234 230 252 252 223 233 245 208 202 208 212 205 197 193 191 192 204 239 285 319 338 346 348 349 348 345 345 343 340 336 334 332 331 332 330 325 317 301 291 291 291 291 292 294 296 297 274 261
230 260 264 285 241 207 270 248 233 191 212 212 201 197 193 190 191 202 236 290 325 337 342 346 348 344 347 343 339 336 333 331 332 332 331 331 327 320 314 285 280 288 288 289 286 292 296 284 267
231 212 252 241 341 292 286 249 242 224 223 214 206 200 198 195 196 203 234 296 325 333 340 343 344 343 341 339 335 333 330 330 330 331 330 331 328 321 314 303 280 278 282 284 279 285 290 289 267
276 230 258 283 360 261 351 293 241 196 226 203 193 201 197 193 196 203 235 293 319 328 334 335 340 339 339 336 334 333 332 328 329 329 329 330 328 321 317 310 293 278 279 279 272 280 284 294 275
237 71 264 263 258 349 229 254 243 145 247 211 197 201 193 195 199 202 238 297 316 325 331 333 338 337 336 334 333 330 327 325 326 328 329 330 326 321 318 310 285 276 273 279 275 273 278 284 267
30 332 299 46 101 254 233 197 222 193 218 193 204 197 193 190 191 205 240 295 321 325 328 331 336 336 334 334 332 328 327 326 325 328 329 328 323 321 313 309 297 278 266 273 274 270 270 277 273
80 55 313 334 344 238 176 236 258 236 226 195 195 188 189 188 192 206 242 303 327 327 330 333 334 334 336 332 330 328 327 325 325 328 327 324 321 316 315 310 303 289 264 267 277 264 267 275 278
176 176 169 261 248 293 351 245 252 291 301 241 191 180 182 187 195 216 261 314 323 327 332 331 335 335 332 329 327 325 324 325 325 326 323 321 316 315 317 308 299 291 275 267 270 273 261 264 281
177 190 151 184 123 7 239 277 281 87 52 117 153 173 185 191 202 221 267 310 318 327 330 334 332 330 329 328 326 326 325 326 325 324 322 320 315 314 302 305 298 289 277 258 268 281 261 266 275
166 153 68 10 284 273 262 270 246 198 206 187 184 191 194 199 209 224 265 299 317 329 330 330 329 329 329 328 328 327 326 326 326 323 322 319 315 308 311 305 286 279 276 262 261 267 268 266 277
154 216 200 193 164 224 293 283 210 193 203 192 201 197 199 203 213 228 265 304 328 325 327 330 331 331 330 330 329 328 326 327 325 324 324 320 314 308 309 305 297 286 274 265 256 260 271 267 272
235 206 186 184 224 236 193 260 170 207 197 196 204 198 201 208 209 229 270 316 317 322 329 333 332 332 331 330 328 328 327 327 326 327 325 319 314 309 305 301 294 287 280 272 257 257 262 262 263